Weather Roundup
Issued by NWS

Home | Current Version | Previous Version | Graphics & Text | Print | Product List | Glossary Off
Versions: 1 2 3 4 5 6 7 8 9 10 11 12 13 14 15 16 17 18 19 20 21 22 23 24 25 26 27 28 29 30 31 32 33 34 35 36 37 38 39 40 41 42 43 44 45 46 47 48 49 50

000
NZUS93 KARX 202159
HRRWXR

CURRENT HOURLY OBSERVATIONS ACROSS
MUCH OF THE UPPER MISSISSIPPI VALLEY
NATIONAL WEATHER SERVICE LA CROSSE WI
500 PM CDT FRI OCT 20 2017


...SOUTHEAST MINNESOTA...


CITY           SKY/WX    TMP DP  RH WIND       PRES   REMARKS
ROCHESTER      MOSUNNY   72  43  35 S25G37    29.83F
ROCHESTER/MAYO FAIR      73  42  32 SE18G31   29.82F
WINONA         MOSUNNY   73  43  33 S3        29.85F
AUSTIN         MOSUNNY   72  45  37 S18G26    29.82S
ALBERT LEA     NOT AVBL
DODGE CENTER   MOSUNNY   73  39  29 S23G29    29.81S
PRESTON        CLOUDY    71  43  37 S16G28    29.87S
OWATONNA       MOSUNNY   73  48  40 S18G25    29.77F
FARIBAULT      CLOUDY    75  46  35 SE16G26   29.77S
$$

...ELSEWHERE IN MINNESOTA...


CITY           SKY/WX    TMP DP  RH WIND       PRES   REMARKS
MINNEAPOLIS    PTSUNNY   77  48  35 S15G25    29.73F
INTNL FALLS    SUNNY     75  46  35 S9G21     29.58S
DULUTH         PTSUNNY   71  48  43 S14       29.73F
RED WING       CLOUDY    75  37  25 S13G22    29.77F
REDWOOD FALLS  SUNNY     77  50  38 S30G43    29.63F
MANKATO        SUNNY     75  48  38 S17G25    29.73F
WORTHINGTON    SUNNY     75  53  46 S14G32    29.67F
FAIRMONT       SUNNY     74  50  42 S28G38    29.72S
$$

...SOUTHWEST WISCONSIN...


CITY           SKY/WX    TMP DP  RH WIND       PRES   REMARKS
LA CROSSE      MOSUNNY   74  49  41 S15       29.87F
PRAIRIE DU CHI MOSUNNY   75  43  31 SE12      29.92F
BOSCOBEL       MOSUNNY   76  49  38 S6        29.93F
LONE ROCK      MOSUNNY   73  50  44 S13       29.95S
PLATTEVILLE    PTSUNNY   75  49  40 S16       29.97S
FORT MC COY    MOSUNNY   74  47  38 S9        29.91F
MAUSTON-NEW LI CLOUDY    75  47  37 S9G17     29.93S
VIROQUA        FAIR      73  50  44 S10       29.93S
WIS DELLS      CLOUDY    73  43  35 S13       29.95F
$$

...ELSEWHERE IN WISCONSIN...


CITY           SKY/WX    TMP DP  RH WIND       PRES   REMARKS
MILWAUKEE      MOCLDY    75  51  43 S12       30.02F
MADISON        PTSUNNY   73  45  36 S12       29.97F
GREEN BAY      CLOUDY    72  51  47 S9        29.96F
EAU CLAIRE     NOT AVBL
BLACK RVR FLS  FAIR      77  40  26 S8        29.89F
MEDFORD        MOSUNNY   72  44  36 S13G20    29.90F
WAUSAU         PTCLDY    73  42  32 S9        29.91F
WIS RAPIDS     SUNNY     74  44  34 S9        29.94S
MARSHFIELD     SUNNY     73  41  31 S10G22    29.91S
RICE LAKE      PTSUNNY   73  42  32 SE15G21   29.82F
$$

...NORTHEAST IOWA...


CITY           SKY/WX    TMP DP  RH WIND       PRES   REMARKS
WATERLOO       CLOUDY    71  46  40 S18       29.87F
DUBUQUE        CLOUDY    73  47  39 S13       29.96F
DECORAH        CLOUDY    72  48  43 S13G22    29.88F
MASON CITY     SUNNY     72  49  44 S21G30    29.83F
CHARLES CITY   SUNNY     73  46  38 S20       29.86F
OELWEIN        CLOUDY    72  46  40 S15       29.91F
$$

...ELSEWHERE IN IOWA...


CITY           SKY/WX    TMP DP  RH WIND       PRES   REMARKS
DES MOINES     CLOUDY    72  52  49 S20       29.84F
IOWA CITY      SUNNY     76  45  33 S15G26    29.95F
FORT DODGE     MOSUNNY   73  51  46 S17G28    29.79F
MARSHALLTOWN   CLOUDY    71  49  45 S21G30    29.86F
CEDAR RAPIDS   CLOUDY    74  48  39 S15       29.92F
$$

...NORTHERN ILLINOIS...


CITY           SKY/WX    TMP DP  RH WIND       PRES   REMARKS
CHICAGO-OHARE  CLOUDY    75  51  43 S9        30.04F
CHICAGO-MIDWAY PTSUNNY   78  50  37 S15       30.06S
MOLINE         SUNNY     75  46  35 S9        29.98F
ROCKFORD       CLOUDY    74  50  42 S13       30.03S
PEORIA         CLOUDY    74  43  32 S10       30.03F
$$

NOTE: "FAIR" INDICATES FEW OR NO CLOUDS BELOW 12,000 FEET WITH NO
SIGNIFICANT WEATHER AND/OR OBSTRUCTIONS TO VISIBILITY. WIND
SPEEDS ARE IN MILES-PER-HOUR.




USA.gov is the U.S. government's official web portal to all federal, state and local government web resources and services.